Regional Weather Roundup
Issued by NWS

Home | Current Version | Previous Version | Graphics & Text | Print | Product List | Glossary On
Versions: 1 2 3 4 5 6 7 8 9 10 11 12 13 14 15 16 17 18 19 20 21 22 23 24 25 26 27 28 29 30 31 32 33 34 35 36 37 38 39 40 41 42 43 44 45 46 47 48 49 50
000
ASUS43 KLOT 040300
RWRIL

ILLINOIS REGIONAL WEATHER ROUNDUP
NATIONAL WEATHER SERVICE CHICAGO/ROMEOVILLE IL
900 PM CST TUE MAR 03 2015

NOTE: "FAIR" INDICATES FEW OR NO CLOUDS BELOW 12,000 FEET WITH NO
SIGNIFICANT WEATHER AND/OR OBSTRUCTIONS TO VISIBILITY.

* THESE STATIONS ARE NOT UNDER NWS QUALITY CONTROL. THEY ALSO MAY NOT
  REPORT WEATHER SUCH AS PRECIPITATION OR FOG.

ILZ001-002-007-009-015-016-024-040400-
NORTHWEST ILLINOIS

CITY           SKY/WX    TMP DP  RH WIND       PRES   REMARKS
MOLINE         CLOUDY    30  23  75 W15       29.92R WCI  19
STERLING*      CLOUDY    32  27  80 W14       29.88R WCI  22
$$

ILZ003-004-008-010-011-017-018-040400-
NORTH CENTRAL ILLINOIS

CITY           SKY/WX    TMP DP  RH WIND       PRES   REMARKS
ROCKFORD       CLOUDY    31  23  72 W8        29.85R WCI  23
$$

ILZ005-006-012>014-019>023-040400-
NORTHEAST ILLINOIS

CITY           SKY/WX    TMP DP  RH WIND       PRES   REMARKS
CHICAGO-OHARE  CLOUDY    32  25  75 W15       29.83R WCI  22
CHICAGO-MIDWAY CLOUDY    35  26  69 W17G24    29.84R WCI  25
AURORA         CLOUDY    33  25  72 W15       29.86R WCI  23
WAUKEGAN       CLOUDY    31  23  72 W5        29.81R WCI  26
DUPAGE AIRPORT CLOUDY    31  24  75 W13       29.85R WCI  21
WHEELING       CLOUDY    32  25  75 W7        29.84R WCI  26
NORTHERLY ISL    N/A     34  26  73 W5          N/A  WCI  30
$$

LMZ740>746-040400-
SOUTHERN LAKE MICHIGAN

STATION/POSITION SKY/WX   TEMP    WIND        PRES    VSBY  WAVE
                          AIR SEA DIR/SP/G                  HT/PER
                          (F)     (DEG/KT/KT) (MB)    (MI)  (FT/S)
WAUKEGAN HARBOR            32                   N/A
HARRISON CRIB              34     280/ 17/ 22   N/A
BURNHAM HARBOR             34     290/  8/ 17   N/A
CALUMET HARBOR             34     260/  7/ 13 1009.0R
MICHIGAN CITY              33     240/ 11/ 14   N/A
$$

ILZ025>027-034>036-040-047-049-050-058-095>099-040400-
WEST-CENTRAL ILLINOIS

CITY           SKY/WX    TMP DP  RH WIND       PRES   REMARKS
QUINCY         CLOUDY    34  30  85 NW7       29.94R WCI  28
$$

ILZ028>032-037-038-041>044-048-051>054-059>061-040400-
CENTRAL ILLINOIS

CITY           SKY/WX    TMP DP  RH WIND       PRES   REMARKS
DECATUR        CLOUDY    36  32  85 NW9       29.88F WCI  29
PEORIA         CLOUDY    35  26  69 NW8       29.92R WCI  29
SPRINGFIELD    CLOUDY    36  30  79 NW10      29.91S WCI  28
TAYLORVILLE    NOT AVBL
$$

ILZ033-039-045-046-055>057-062-063-040400-
EAST-CENTRAL ILLINOIS

CITY           SKY/WX    TMP DP  RH WIND       PRES   REMARKS
CHAMPAIGN      CLOUDY    34  32  92 W12       29.87F WCI  25
MATTOON        CLOUDY    34  34 100 NW8       29.88R FOG     WCI  27
$$

ILZ079-100>102-040400-
SOUTHWEST ILLINOIS

CITY           SKY/WX    TMP DP  RH WIND       PRES   REMARKS
ALTON          DRIZZLE   39  37  93 NW7       29.92R WCI  34
BELLEVILLE     LGT RAIN  40  40 100 NW6       29.90R
CAHOKIA*       LGT RAIN  42  39  89 NW14G20   29.91R
$$

ILZ064>066-069>071-074>076-080>082-084>086-088>090-092>094-040400-
SOUTH-CENTRAL ILLINOIS

CITY           SKY/WX    TMP DP  RH WIND       PRES   REMARKS
CARBONDALE     LGT RAIN  41  40  96 CALM      29.90F VSB 1/2
MT. VERNON     CLOUDY    37  36  93 CALM      29.91S VSB 1/2
$$

ILZ067-068-072-073-078-083-087-091-040400-
SOUTHEAST ILLINOIS

CITY           SKY/WX    TMP DP  RH WIND       PRES   REMARKS
LAWRENCEVILLE  LGT RAIN  39  38  96 SW6       29.93R WCI  35
$$

ABBREVIATIONS USED IN REMARKS
   TC - TEMPERATURE IN CELSIUS
  WCI - WIND CHILL INDEX
   HX - HEAT INDEX
  VSB - VISIBILITY
$$




USA.gov is the U.S. government's official web portal to all federal, state and local government web resources and services.